Location: Dugenta
(41.1333°N, 14.4500°E)
Time: 12:07:14
(UTC+00:00)

Cosmos 1703 Rocket - Pass Details

Date: 03 March 2021
Orbit: 604 x 634 km, 82.5° (Epoch: 21 April)

Event Time Altitude Azimuth Distance (km) Brightness Sun altitude
Rises 18:49:15 0° 347° (NNW) 2,906 7.3 -22.1°
Reaches altitude 10° 18:51:32 10° 344° (NNW) 1,990 6.5 -22.5°
Maximum altitude 18:55:51 57° 266° (W) 723 4.1 -23.3°
Enters shadow 18:59:28 14° 190° (S) 1,712 5.8 -24.0°
